CAPE
0 0 0 0 0 0 0 0 0 0 0 0 0 0 0 0 0 0 1576 1630 1679 1588 2231 1624 1671 1729 1683 1617 1568 1534 1398 1198 1319 1541 1618 1494 1320 988 920 773 611 337 242 221 173 192 311 373 331
0 0 0 0 0 0 0 0 0 0 0 0 0 0 0 0 0 18 1764 2005 1841 1910 2324 1914 1635 1541 1503 1535 1535 1474 1319 1218 1227 1440 1490 1542 1366 1014 954 919 631 420 285 309 288 180 180 178 165
0 0 0 0 0 0 0 0 0 0 0 0 0 0 0 0 282 858 1351 1822 2049 2268 2459 2040 1643 1473 1383 1309 1301 1341 1287 1254 1364 1458 1482 1529 1326 1155 1001 902 557 403 282 316 343 154 134 26 0
0 0 0 0 0 0 0 0 0 0 0 0 0 0 0 0 6 824 1820 1859 2111 2219 2396 2227 1727 1456 1392 1270 1209 1118 1031 1037 1182 1292 1350 1436 1474 1428 1166 692 401 276 269 361 181 173 38 33 33
0 0 0 0 0 0 0 0 0 0 0 0 0 0 0 0 0 0 338 1080 894 1150 1838 2124 1495 1365 1232 1184 1371 1167 1169 1098 977 997 1165 1104 1100 1011 730 531 284 269 442 170 197 200 425 380 230
0 0 0 0 0 0 0 0 0 0 0 0 0 0 0 0 0 0 0 0 0 0 0 0 18 799 939 975 1237 1014 938 986 806 738 1009 1087 978 792 569 630 450 378 414 109 232 399 356 217 179
0 0 0 0 0 0 0 0 0 0 0 0 0 0 0 0 0 0 0 0 0 0 0 0 0 0 10 778 958 933 814 670 900 1230 1109 1199 901 777 902 863 737 678 324 126 117 104 133 218 175
0 0 0 0 0 0 0 0 0 0 0 0 0 0 0 0 0 0 0 0 0 0 0 0 0 0 0 0 274 881 891 605 654 898 1050 1029 839 764 582 756 482 422 367 221 8 42 63 225 213
0 0 0 0 0 0 0 0 0 0 0 0 0 0 0 0 0 0 0 0 0 0 0 0 0 0 0 0 0 20 638 801 580 545 997 1046 964 750 804 722 692 538 440 214 257 197 8 0 164
0 0 0 0 0 0 0 0 0 0 0 0 0 0 0 0 0 0 0 0 0 0 0 0 0 0 0 0 0 2 61 661 778 741 772 1068 1154 850 814 679 634 568 501 390 299 250 0 0 0
0 0 0 0 0 0 0 0 0 0 0 0 0 0 0 0 0 0 0 0 0 0 0 0 0 0 0 0 0 0 1 12 579 828 941 1009 994 922 852 809 601 257 499 315 50 0 0 0 1
0 0 0 0 0 0 0 0 0 0 0 0 0 0 0 0 0 0 0 0 0 0 0 0 0 0 0 0 0 0 0 5 7 451 772 780 570 806 899 734 792 360 188 244 97 0 1 0 0
0 0 0 0 0 0 0 0 0 0 0 0 0 0 0 0 0 0 0 0 0 0 0 0 0 0 0 0 0 0 0 0 3 2 332 571 390 245 466 877 820 725 353 239 238 23 35 0 0
0 0 0 0 0 0 0 0 0 0 0 0 0 0 0 0 0 0 0 0 0 0 0 0 0 0 0 0 0 0 0 0 2 3 2 298 510 499 692 856 993 823 668 462 361 53 12 0 0
0 0 0 0 0 0 0 0 0 0 0 0 0 0 0 0 0 0 0 0 0 0 0 0 0 0 0 0 0 0 0 0 1 1 0 0 310 450 668 621 812 956 926 693 445 92 0 10 3
0 0 0 0 0 0 0 0 0 0 0 0 0 0 0 0 0 0 0 0 0 0 0 0 0 0 0 0 0 0 0 0 0 0 2 1 0 266 88 192 313 439 505 644 451 158 69 66 11
0 0 0 0 0 0 0 0 0 0 0 0 0 0 0 0 0 0 0 0 0 0 0 0 0 0 0 0 0 0 0 0 0 0 0 2 1 2 240 208 40 133 132 274 314 159 86 123 26
0 0 0 0 0 0 0 0 0 0 0 0 0 0 0 0 0 0 0 0 0 0 0 0 0 0 0 0 0 0 0 0 0 0 3 0 0 0 0 424 310 33 88 46 104 214 130 177 98
0 0 0 0 0 0 0 0 0 0 0 0 0 0 0 0 0 0 0 0 0 0 0 0 0 0 0 0 0 0 0 0 0 0 0 0 0 0 1 2 526 403 101 25 72 236 174 107 100
0 0 0 0 0 0 0 0 0 0 0 0 0 0 0 0 0 0 0 0 0 0 0 0 0 0 0 0 0 0 0 0 0 0 0 1 0 0 0 3 20 337 226 146 140 221 140 89 88
0 0 0 0 0 0 0 0 0 0 0 0 0 0 0 0 0 0 0 0 0 0 0 0 0 0 0 0 0 0 0 0 0 0 0 0 0 0 0 0 1 62 153 170 213 273 141 36 4
0 0 0 0 0 0 0 0 0 0 0 0 0 0 0 0 0 0 0 0 0 0 0 0 0 0 0 0 0 0 1 1 0 0 0 1 0 0 0 0 0 0 111 117 140 216 238 80 17
0 0 0 0 0 0 0 0 0 0 0 0 0 0 0 0 0 0 0 0 0 0 0 0 0 0 0 0 0 1 1 2 0 2 1 0 0 0 0 0 0 0 0 228 160 85 97 114 62
0 0 0 0 0 0 0 0 0 0 0 0 0 0 0 0 0 0 0 0 0 0 0 0 0 0 0 0 0 0 0 0 1 2 1 1 1 1 2 0 0 0 0 2 215 167 131 159 97
0 0 0 0 0 0 0 0 0 0 0 0 0 0 0 0 0 0 0 0 0 0 0 0 0 0 0 0 0 0 0 0 1 0 1 1 1 0 1 2 1 2 2 0 2 174 157 161 100
0 0 0 0 0 0 0 0 0 0 0 0 0 0 0 0 0 0 0 0 0 0 0 0 0 0 0 0 0 0 0 0 1 2 0 2 4 3 3 3 1 1 2 1 1 2 172 215 165
0 0 0 0 0 0 0 0 0 0 0 0 0 0 0 0 0 0 0 0 0 0 0 0 0 0 0 0 0 0 0 0 1 2 1 8 3 6 5 3 3 1 1 2 3 2 86 164 159
0 0 0 0 0 0 0 0 0 0 0 0 0 0 0 0 0 0 0 0 0 0 0 0 0 0 0 0 0 0 0 0 0 2 0 0 3 5 6 4 3 2 1 2 1 1 1 85 130
0 0 0 0 0 0 0 0 0 0 0 0 0 0 0 0 0 0 0 0 0 0 0 0 0 0 0 0 0 0 0 0 1 4 1 3 1 4 7 5 3 4 1 1 1 2 0 117 90
0 0 0 0 0 0 1 0 0 0 0 0 0 0 0 0 0 0 0 0 0 0 0 0 0 0 0 0 0 0 0 0 0 1 4 4 3 4 7 6 4 3 3 2 1 0 2 17 128
CIN
-0 -0 -0 -0 -0 -0 -0 -0 -0 -0 -0 -0 -0 -0 -0 -0 -0 -0 -33 -46 -55 -59 -4 -27 -22 -17 -11 -7 -4 -2 -4 -9 -8 -2 -0 -0 -0 -0 -0 -1 -2 -4 -1 -10 -11 -2 -0 -0 -0
-0 -0 -0 -0 -0 -0 -0 -0 -0 -0 -0 -0 -0 -0 -0 -0 -0 -37 -1 -17 -28 -9 -0 -1 -10 -12 -15 -10 -7 -6 -8 -7 -5 -2 -1 -0 -0 -2 -2 -1 -0 -0 -1 -1 -2 -9 -3 -6 -23
-0 -0 -0 -0 -0 -0 -0 -0 -0 -0 -0 -0 -0 -0 -0 -0 -25 -1 -3 -7 -14 -0 -0 -0 -9 -12 -14 -22 -23 -21 -22 -10 -6 -3 -3 -0 -0 -0 -1 -0 -0 -5 -1 -3 -2 -10 -9 -80 -0
-0 -0 -0 -0 -0 -0 -0 -0 -0 -0 -0 -0 -0 -0 -0 -0 -16 -2 -1 -0 -0 -0 -0 -1 -7 -10 -8 -13 -15 -22 -33 -26 -12 -4 -2 -1 -0 -0 -0 -1 -2 -3 -2 -3 -12 -10 -82 -75 -87
-0 -0 -0 -0 -0 -0 -0 -0 -0 -0 -0 -0 -0 -0 -0 -0 -0 -0 -57 -1 -2 -1 -0 -0 -8 -7 -7 -10 -7 -14 -16 -20 -21 -13 -1 -2 -2 -0 -2 -6 -17 -5 -1 -9 -14 -23 -1 -1 -15
-0 -0 -0 -0 -0 -0 -0 -0 -0 -0 -0 -0 -0 -0 -0 -0 -0 -0 -0 -0 -0 -0 -0 -0 -5 -11 -15 -10 -5 -11 -15 -14 -18 -21 -4 -0 -1 -1 -5 -1 -5 -5 -3 -14 -10 -4 -4 -9 -29
-0 -0 -0 -0 -0 -0 -0 -0 -0 -0 -0 -0 -0 -0 -0 -0 -0 -0 -0 -0 -0 -0 -0 -0 -0 -0 -20 -5 -10 -8 -11 -19 -12 -4 -4 -1 -5 -5 -2 -2 -3 -2 -8 -14 -13 -18 -9 -3 -15
-0 -0 -0 -0 -0 -0 -0 -0 -0 -0 -0 -0 -0 -0 -0 -0 -0 -0 -0 -0 -0 -0 -0 -0 -0 -0 -0 -0 -39 -5 -11 -33 -28 -15 -10 -5 -6 -7 -9 -7 -10 -14 -12 -13 -66 -32 -21 -4 -3
-0 -0 -0 -0 -0 -0 -0 -0 -0 -0 -0 -0 -0 -0 -0 -0 -0 -0 -0 -0 -0 -0 -0 -0 -0 -0 -0 -0 -0 -67 -6 -9 -32 -34 -15 -11 -1 -1 -2 -2 -6 -12 -12 -21 -11 -14 -31 -0 -2
-0 -0 -0 -0 -0 -0 -0 -0 -0 -0 -0 -0 -0 -0 -0 -0 -0 -0 -0 -0 -0 -0 -0 -0 -0 -0 -0 -0 -0 -0 -26 -0 -0 -1 -2 -1 -0 -1 -1 -1 -7 -9 -13 -15 -11 -10 -0 -0 -0
-0 -0 -0 -0 -0 -0 -0 -0 -0 -0 -0 -0 -0 -0 -0 -0 -0 -0 -0 -0 -0 -0 -0 -0 -0 -0 -0 -0 -0 -0 -0 -19 -1 -1 -0 -1 -1 -0 -1 -0 -5 -2 -7 -1 -29 -7 -0 -0 -0
-0 -0 -0 -0 -0 -0 -0 -0 -0 -0 -0 -0 -0 -0 -0 -0 -0 -0 -0 -0 -0 -0 -0 -0 -0 -0 -0 -0 -0 -0 -0 -0 -0 -6 -4 -2 -9 -9 -1 -1 -0 -1 -15 -7 -19 -0 -5 -0 -0
-0 -0 -0 -0 -0 -0 -0 -0 -0 -0 -0 -0 -0 -0 -0 -0 -0 -0 -0 -0 -0 -0 -0 -0 -0 -0 -0 -0 -0 -0 -0 -0 -0 -0 -6 -1 -19 -33 -10 -1 -2 -1 -3 -2 -5 -49 -17 -0 -0
-0 -0 -0 -0 -0 -0 -0 -0 -0 -0 -0 -0 -0 -0 -0 -0 -0 -0 -0 -0 -0 -0 -0 -0 -0 -0 -0 -0 -0 -0 -0 -0 -0 -0 -0 -5 -1 -5 -1 -6 -0 -0 -1 -0 -0 -57 -68 -0 -0
-0 -0 -0 -0 -0 -0 -0 -0 -0 -0 -0 -0 -0 -0 -0 -0 -0 -0 -0 -0 -0 -0 -0 -0 -0 -0 -0 -0 -0 -0 -0 -0 -0 -0 -0 -2 -0 -1 -0 -11 -5 -0 -0 -0 -2 -27 -0 -16 -1
-0 -0 -0 -0 -0 -0 -0 -0 -0 -0 -0 -0 -0 -0 -0 -0 -0 -0 -0 -0 -0 -0 -0 -0 -0 -0 -0 -0 -0 -0 -0 -0 -0 -0 -0 -0 -0 -4 -0 -8 -15 -5 -10 -0 -0 -11 -10 -14 -9
-0 -0 -0 -0 -0 -0 -0 -0 -0 -0 -0 -0 -0 -0 -0 -0 -0 -0 -0 -0 -0 -0 -0 -0 -0 -0 -0 -0 -0 -0 -0 -0 -0 -0 -0 -0 -0 -0 -0 -10 -2 -16 -6 -5 -0 -9 -44 -4 -42
-0 -0 -0 -0 -0 -0 -0 -0 -0 -0 -0 -0 -0 -0 -0 -0 -0 -0 -0 -0 -0 -0 -0 -0 -0 -0 -0 -0 -0 -0 -0 -0 -0 -0 -0 -0 -0 -0 -0 -0 -2 -23 -0 -23 -15 -1 -6 -2 -6
-0 -0 -0 -0 -0 -0 -0 -0 -0 -0 -0 -0 -0 -0 -0 -0 -0 -0 -0 -0 -0 -0 -0 -0 -0 -0 -0 -0 -0 -0 -0 -0 -0 -0 -0 -0 -0 -0 -0 -0 -0 -1 -16 -36 -19 -5 -0 -5 -1
-0 -0 -0 -0 -0 -0 -0 -0 -0 -0 -0 -0 -0 -0 -0 -0 -0 -0 -0 -0 -0 -0 -0 -0 -0 -0 -0 -0 -0 -0 -0 -0 -0 -0 -0 -0 -0 -0 -0 -0 -11 -0 -10 -13 -7 -0 -5 -18 -1
-0 -0 -0 -0 -0 -0 -0 -0 -0 -0 -0 -0 -0 -0 -0 -0 -0 -0 -0 -0 -0 -0 -0 -0 -0 -0 -0 -0 -0 -0 -0 -0 -0 -0 -0 -0 -0 -0 -0 -0 -0 -0 -10 -11 -13 -6 -11 -26 -6
-0 -0 -0 -0 -0 -0 -0 -0 -0 -0 -0 -0 -0 -0 -0 -0 -0 -0 -0 -0 -0 -0 -0 -0 -0 -0 -0 -0 -0 -0 -1 -0 -0 -0 -1 -0 -0 -0 -0 -0 -0 -0 -2 -12 -8 -7 -1 -14 -55
-0 -0 -0 -0 -0 -0 -0 -0 -0 -0 -0 -0 -0 -0 -0 -0 -0 -0 -0 -0 -0 -0 -0 -0 -0 -0 -0 -0 -0 -0 -1 -0 -0 -0 -0 -0 -0 -0 -0 -0 -0 -0 -0 -0 -4 -13 -10 -4 -12
-0 -0 -0 -0 -0 -0 -0 -0 -0 -0 -0 -0 -0 -0 -0 -0 -0 -0 -0 -0 -0 -0 -0 -0 -0 -0 -0 -0 -0 -0 -1 -1 -0 -0 -0 -0 -0 -0 -0 -0 -0 -0 -0 -0 -0 -3 -6 -0 -3
-0 -0 -0 -0 -0 -0 -0 -0 -0 -0 -0 -0 -0 -0 -0 -0 -0 -0 -0 -0 -0 -0 -0 -0 -0 -0 -0 -0 -0 -0 -0 -1 -1 -1 -0 -0 -0 -0 -0 -0 -0 -0 -0 -0 -0 -2 -2 -3 -5
-0 -0 -0 -0 -0 -0 -0 -0 -0 -0 -0 -0 -0 -0 -0 -0 -0 -0 -0 -0 -0 -0 -0 -0 -0 -0 -0 -0 -0 -0 -0 -0 -0 -0 -0 -0 -0 -0 -0 -0 -0 -0 -0 -0 -0 -0 -1 -0 -0
-0 -0 -0 -0 -0 -0 -0 -0 -0 -0 -0 -0 -0 -0 -0 -0 -0 -0 -0 -0 -0 -0 -0 -0 -0 -0 -0 -0 -0 -0 -0 -0 -0 -0 -0 -0 -0 -0 -0 -0 -0 -0 -0 -0 -0 -0 -3 -1 -0
-0 -0 -0 -0 -0 -0 -0 -0 -0 -0 -0 -0 -0 -0 -0 -0 -0 -0 -0 -0 -0 -0 -0 -0 -0 -0 -0 -0 -0 -0 -0 -0 -1 -0 -0 -1 -0 -0 -0 -0 -0 -0 -0 -0 -0 -0 -0 -0 -0
-0 -0 -0 -0 -0 -0 -0 -0 -0 -0 -0 -0 -0 -0 -0 -0 -0 -0 -0 -0 -0 -0 -0 -0 -0 -0 -0 -0 -0 -0 -0 -0 -1 -0 -0 -0 -0 -0 -0 -0 -0 -0 -0 -0 -0 -0 -0 -0 -0
-0 -0 -0 -0 -0 -0 -2 -0 -0 -0 -0 -0 -0 -0 -0 -0 -0 -0 -0 -0 -0 -0 -0 -0 -0 -0 -0 -0 -0 -0 -0 -0 -0 -1 -0 -0 -0 -0 -0 -0 -0 -0 -0 -0 -0 -0 -0 -9 -0
Wind_Speed
13 9 14 13 17 18 14 15 16 14 15 15 14 15 17 18 20 21 20 19 18 13 8 7 7 6 7 8 9 8 7 5 3 2 3 4 4 3 3 3 3 5 5 5 5 6 6 7 7
13 15 14 15 17 15 14 15 15 16 17 16 16 16 17 17 19 20 20 21 18 12 11 10 8 8 9 8 9 10 10 8 6 4 3 2 2 2 2 3 3 5 6 4 4 6 6 7 8
10 10 16 13 14 16 15 13 15 18 17 16 16 16 17 20 21 21 24 22 18 13 12 12 9 9 9 9 9 10 10 11 11 10 8 6 4 4 3 4 5 5 6 4 3 4 6 6 6
17 15 15 11 12 14 14 14 18 18 14 15 16 14 13 22 23 27 26 21 19 16 16 15 11 11 10 11 11 11 11 11 11 11 11 9 8 7 5 5 5 4 6 6 4 4 5 6 6
17 14 11 12 13 14 15 18 18 17 14 18 18 15 12 23 27 26 25 23 22 21 21 21 18 17 16 14 14 14 13 13 13 12 12 12 10 9 9 7 5 4 4 4 4 4 6 7 6
14 15 11 12 13 14 15 18 15 17 16 21 18 17 13 24 29 29 26 24 23 23 23 24 25 27 23 22 19 18 17 16 16 15 14 13 12 11 9 8 8 6 4 1 5 5 6 5 6
15 15 15 14 11 11 14 15 19 19 21 21 24 14 20 30 33 30 27 25 24 25 25 26 27 27 27 27 23 22 19 17 16 16 16 15 12 12 12 12 12 10 7 5 5 8 6 7 8
17 17 16 15 14 14 17 17 20 20 20 20 23 23 25 36 35 30 28 27 26 27 27 28 28 29 28 29 30 24 19 17 16 16 17 16 17 16 16 15 16 13 8 6 5 8 9 12 12
17 18 18 19 17 16 19 19 21 18 18 21 22 25 31 34 34 31 31 30 29 29 30 30 30 30 30 30 30 30 26 19 18 17 17 17 19 17 16 17 14 10 8 7 8 10 13 14 15
18 19 20 19 18 18 21 20 21 21 24 27 30 30 32 33 33 32 32 33 33 33 33 32 32 32 32 30 31 30 29 27 21 21 20 19 19 20 18 16 14 12 9 9 10 12 15 15 16
19 20 16 21 23 22 19 22 25 25 28 31 34 34 34 34 33 33 33 33 34 35 34 34 34 33 33 32 31 29 30 29 29 28 23 22 21 23 23 20 18 16 14 14 14 14 15 16 18
17 20 20 23 26 23 23 21 24 25 26 28 29 30 32 34 34 35 35 36 37 36 36 36 36 35 34 33 32 32 31 31 29 32 33 28 26 25 26 24 21 19 17 17 16 17 16 17 17
19 18 22 21 22 23 19 21 22 28 28 28 29 30 32 33 34 34 35 35 36 37 38 38 37 36 36 35 34 33 33 33 33 33 32 32 30 23 32 25 19 22 20 20 19 18 18 18 16
20 19 20 23 23 24 24 26 23 32 30 30 32 33 33 34 35 35 36 37 38 38 39 39 38 38 38 36 36 35 34 35 35 34 33 33 33 30 24 22 20 22 20 20 21 20 20 19 17
19 22 22 29 29 28 22 31 31 30 29 30 32 33 34 35 35 36 37 38 39 39 39 39 39 39 39 38 38 36 36 36 36 36 35 35 34 30 29 25 25 22 21 20 19 19 21 20 20
23 23 27 27 29 25 25 34 29 29 30 32 32 34 35 35 37 37 38 38 39 40 40 40 40 40 40 39 39 39 37 37 37 36 36 35 35 36 30 23 26 25 23 22 20 20 22 23 21
26 31 30 30 27 30 30 32 30 28 29 32 34 35 37 38 38 39 39 40 41 41 42 42 41 41 41 40 40 40 40 39 38 37 37 36 36 36 37 28 28 22 27 26 22 25 26 27 23
35 35 33 33 32 34 33 31 30 28 30 33 35 36 37 39 39 39 40 40 41 41 41 42 42 42 42 41 41 40 40 40 39 38 37 38 38 37 37 36 27 21 23 23 22 27 27 27 24
30 33 36 32 30 35 32 33 29 30 31 35 36 38 39 39 39 39 40 40 41 41 42 42 43 43 42 42 43 43 43 42 41 40 40 39 38 39 38 37 36 28 26 26 26 27 26 32 28
33 35 37 34 28 37 34 35 29 29 31 32 35 37 39 41 42 42 42 42 42 42 42 42 43 42 42 42 42 42 43 42 42 41 42 41 41 39 39 39 37 33 32 28 28 27 28 30 26
35 35 37 39 40 35 32 35 30 27 28 29 32 34 36 39 42 43 43 43 44 44 44 43 42 42 41 42 42 43 42 42 41 43 42 42 42 41 40 40 42 37 34 33 30 29 28 29 30
42 32 37 39 41 43 28 44 31 29 30 33 36 38 40 42 42 43 44 43 42 44 43 43 43 42 41 41 42 43 44 46 45 44 44 44 42 42 42 41 40 43 39 37 36 34 32 30 30
37 39 39 39 37 37 32 38 34 28 32 36 37 38 41 42 43 43 44 43 43 43 43 42 42 42 41 41 41 42 43 43 44 45 45 44 43 43 43 42 42 41 40 39 38 37 37 35 34
38 40 35 32 33 42 33 37 38 33 31 33 36 38 41 42 43 43 43 43 43 43 44 43 42 42 41 42 42 42 44 45 46 45 46 45 44 43 43 43 44 44 42 41 40 40 39 38 37
42 44 44 43 42 43 32 42 36 26 26 31 36 40 44 45 46 46 46 46 45 44 44 43 42 43 42 42 42 42 43 44 45 45 46 47 46 45 45 45 45 46 45 44 42 41 41 40 39
38 40 42 49 47 48 40 37 31 21 23 28 35 41 45 46 47 47 47 46 46 45 44 44 43 43 42 42 42 42 42 42 43 44 45 46 46 46 46 46 46 47 48 47 46 44 42 40 40
37 40 32 39 36 42 35 31 26 21 23 32 41 45 47 49 49 47 47 45 45 45 45 43 43 43 42 42 41 41 41 42 43 43 44 44 45 46 46 47 48 48 48 49 47 48 46 44 42
32 31 38 36 45 49 39 36 31 25 27 38 44 46 50 49 48 47 46 45 44 44 44 43 42 43 42 42 41 41 42 41 42 42 43 44 45 46 47 48 48 49 49 49 49 50 49 47 45
33 34 33 32 31 40 44 34 23 24 30 40 43 47 50 48 47 46 45 45 44 44 43 43 42 42 42 42 41 41 41 41 41 40 41 43 44 45 47 47 48 50 50 49 50 51 51 51 48
28 32 30 36 35 30 32 31 20 24 32 38 42 47 48 44 44 46 46 45 45 44 44 43 42 42 41 41 41 41 41 40 40 40 40 41 42 43 46 46 48 49 50 50 51 53 53 52 50
Wind_Direction
139 198 28 1 289 286 316 313 302 310 308 313 323 309 307 304 300 295 328 328 322 327 330 327 314 314 313 305 299 299 304 317 345 27 55 75 76 50 24 21 351 335 1 31 12 326 336 316 307
193 154 121 343 304 320 321 313 311 307 306 310 313 318 319 320 320 314 317 324 326 335 325 316 309 304 301 301 293 291 291 296 301 305 319 329 350 25 357 338 338 315 317 3 21 324 311 303 292
17 309 307 357 342 326 330 334 321 313 311 317 319 323 320 318 326 317 316 315 326 331 327 316 310 304 298 295 290 285 285 286 287 289 293 293 298 305 313 314 313 310 297 321 341 327 298 300 301
329 6 4 65 14 347 347 342 318 320 337 330 323 330 349 343 318 314 312 316 316 318 316 315 312 302 299 294 290 285 283 281 280 281 282 286 286 289 296 306 307 305 289 285 303 299 288 294 299
336 19 35 18 4 353 339 324 326 328 334 323 319 327 339 331 328 326 322 315 311 308 305 303 299 296 292 291 287 283 282 280 279 279 280 279 279 281 284 288 293 291 292 269 272 280 280 283 293
9 5 18 8 359 355 349 335 338 334 336 319 320 318 331 327 326 323 332 333 333 327 322 319 309 288 286 285 284 283 281 279 277 277 277 276 274 276 279 282 282 278 274 202 257 269 280 286 284
346 348 345 347 354 358 346 339 331 324 322 320 308 317 312 311 317 319 324 328 330 328 323 320 315 306 302 285 283 282 280 279 277 274 273 270 269 271 273 277 278 274 267 247 252 262 269 279 284
344 341 338 337 340 338 339 334 326 326 324 315 319 310 305 300 310 314 320 325 326 326 323 318 315 310 304 295 290 283 279 273 272 271 270 267 266 268 271 274 275 271 258 243 241 257 270 278 282
345 332 329 329 330 332 331 327 333 336 331 336 326 319 307 307 312 313 311 314 316 320 320 318 315 311 306 300 295 293 281 272 268 266 266 263 264 265 267 268 271 262 252 245 250 264 273 279 279
342 331 332 336 333 331 331 326 322 318 318 315 316 318 315 314 315 313 311 308 309 310 313 315 313 310 307 303 298 294 293 278 271 267 264 261 262 261 260 263 262 258 248 251 260 270 274 276 278
342 332 341 335 327 324 325 326 328 312 308 314 311 314 318 318 316 313 310 309 307 307 308 312 311 309 307 303 299 297 293 293 275 268 263 261 261 262 259 259 258 259 257 261 264 269 273 272 275
345 340 333 329 328 323 318 323 326 327 315 318 319 319 320 321 320 316 311 308 307 307 306 308 308 307 306 302 299 295 292 291 290 276 266 265 261 259 260 257 255 254 255 259 261 265 269 273 273
340 339 339 338 335 338 335 325 321 323 323 324 323 323 321 321 321 322 319 315 311 308 307 306 307 305 304 301 299 295 292 289 288 284 280 267 262 258 256 255 255 254 256 257 259 262 265 269 270
343 342 337 336 333 333 321 319 313 320 322 319 318 319 321 320 320 318 318 317 315 312 309 308 305 305 302 298 297 294 291 289 286 285 284 282 266 265 254 253 253 253 254 258 258 259 261 264 265
340 331 329 330 326 324 322 313 315 321 322 321 320 318 318 320 322 319 317 314 314 313 311 309 307 305 301 296 295 293 290 288 285 283 283 283 278 266 258 254 251 251 252 253 256 257 261 262 262
335 331 324 330 331 329 325 311 321 326 323 320 320 319 317 317 318 320 319 316 314 311 310 310 308 305 303 298 294 290 289 287 285 282 281 281 281 276 264 246 247 247 250 253 253 255 257 258 260
339 327 328 327 334 327 324 315 322 329 325 322 319 318 316 315 316 318 319 317 314 312 310 308 307 305 303 299 296 291 287 285 284 281 280 280 279 279 275 269 267 247 250 251 254 254 253 255 257
331 328 328 326 330 326 320 316 323 329 327 324 321 319 317 316 316 317 318 319 317 314 311 309 307 305 303 299 297 293 288 284 281 281 280 279 276 277 277 270 266 258 254 254 245 250 251 253 256
338 331 327 328 330 327 322 317 324 328 327 324 323 321 319 319 319 320 319 321 319 317 315 312 308 305 303 299 295 291 288 285 281 279 278 278 277 275 274 274 263 260 256 255 248 249 247 248 251
338 333 330 330 332 326 320 318 324 330 330 329 327 325 323 321 321 320 319 319 319 317 317 314 312 308 304 300 296 292 288 285 282 280 278 276 275 275 270 268 271 259 258 252 246 244 247 248 245
338 336 333 328 327 323 320 316 319 328 335 335 335 332 330 327 323 323 321 320 319 317 316 314 313 311 308 303 298 293 290 286 282 280 278 276 274 272 270 268 265 265 253 251 247 246 243 245 246
336 340 335 330 328 324 329 318 317 322 324 329 331 331 330 328 326 326 324 322 321 319 317 314 312 312 310 308 301 297 287 282 282 280 278 277 275 271 268 267 267 264 257 251 248 246 246 245 245
339 337 333 329 326 326 323 320 322 325 319 326 329 332 332 331 329 326 324 325 322 322 319 317 314 311 310 309 305 298 292 287 283 281 278 276 274 272 268 266 265 264 264 252 250 246 245 246 247
344 339 337 338 334 326 327 325 322 323 325 329 332 335 335 333 331 329 328 326 323 322 320 317 314 312 310 307 304 300 294 290 283 280 277 275 273 271 268 267 264 262 261 261 251 248 246 246 247
347 343 335 332 331 329 334 325 323 330 334 335 334 334 334 332 330 328 326 323 322 321 319 317 314 311 311 307 305 302 297 293 287 281 276 275 272 270 268 267 265 261 260 259 259 250 247 245 245
346 347 340 332 331 327 328 328 333 338 339 341 338 334 331 329 329 327 325 322 320 321 319 315 313 310 309 308 306 304 299 295 290 285 280 276 272 270 269 267 265 263 259 258 256 256 248 246 245
346 345 347 337 333 332 335 336 339 342 338 337 335 332 330 329 329 328 326 325 322 318 319 317 311 308 306 305 305 304 302 297 291 288 283 279 274 271 269 267 265 263 260 257 256 253 250 247 246
353 353 343 344 337 334 336 335 335 344 341 336 334 334 331 330 329 329 327 326 324 320 318 318 314 304 301 301 301 301 301 300 295 290 285 281 278 273 270 267 264 263 261 258 255 253 253 247 247
350 349 350 345 341 337 336 341 350 345 344 339 338 335 332 331 330 329 328 326 325 321 318 319 318 308 299 296 295 296 298 299 296 293 289 284 281 276 271 268 265 262 261 259 255 252 251 247 246
355 348 349 345 343 339 335 335 358 352 345 343 340 337 336 340 336 329 326 326 323 322 318 316 318 314 299 293 290 290 291 294 291 291 291 289 284 279 273 269 264 263 260 259 255 251 250 252 245